Wind_Speed
11 10 10 11 12 14 15 16 18 19 19 19 19 18 18 18 18 18 18 18 18 18 18 17 17 17 17 16 16 16 16 17 17 17 18 18 18 18 19 20 20 21 20
10 10 10 11 12 13 14 15 17 17 18 19 19 19 19 18 19 19 19 19 19 19 19 18 18 19 19 19 19 19 19 19 19 19 19 20 20 20 20 21 22 22 22
8 8 8 9 9 10 11 12 13 13 14 15 16 16 17 17 18 19 19 19 20 20 20 20 20 21 21 21 21 21 21 20 20 20 20 21 21 20 20 21 22 23 23
6 6 6 6 7 7 8 8 9 9 10 12 13 14 15 16 18 19 20 20 21 22 22 22 22 22 23 23 23 23 22 21 20 21 21 21 21 21 22 22 23 24 24
4 5 6 6 6 7 7 7 7 8 9 9 11 12 13 15 17 18 19 20 21 21 21 21 21 21 21 21 21 21 21 20 19 20 21 22 22 23 23 23 23 24 24
4 5 5 5 6 6 7 7 8 8 9 9 10 11 12 13 14 16 17 17 18 18 18 18 18 18 18 19 19 20 19 18 18 19 20 21 22 22 22 22 22 22 22
4 4 4 5 6 6 6 7 8 8 9 9 10 11 11 12 13 14 15 16 17 17 17 17 18 18 18 19 20 21 20 18 17 18 19 20 21 22 21 21 21 21 21
5 5 5 6 6 6 6 6 7 7 8 8 10 11 12 13 15 16 17 18 18 19 20 20 20 20 20 21 21 22 22 20 18 19 20 21 21 21 21 21 21 22 22
6 6 7 6 6 6 6 6 6 7 8 9 10 11 13 14 15 16 17 19 19 20 21 21 21 22 22 22 23 24 23 21 20 20 21 22 23 23 22 22 22 22 23
8 7 7 6 6 6 6 5 6 7 8 9 10 11 12 13 15 16 17 18 19 20 20 20 21 21 21 22 22 23 23 22 21 21 22 23 23 24 24 24 24 24 23
8 7 7 7 6 6 6 6 7 8 9 10 11 11 12 13 14 15 15 16 16 17 17 18 18 19 20 20 21 22 22 22 22 21 22 22 23 24 25 26 26 26 25
9 8 7 7 7 7 7 8 8 9 10 10 11 12 13 13 13 13 13 14 14 15 15 15 15 16 18 19 20 21 22 21 21 21 21 22 23 25 26 27 28 28 28
11 10 9 9 8 8 8 9 9 9 10 11 12 12 13 13 13 13 13 13 13 13 13 14 14 16 17 18 19 20 21 21 21 21 22 23 24 25 26 28 29 30 30
11 12 11 11 11 10 9 9 9 10 10 11 12 13 14 14 14 14 13 13 13 14 14 13 14 15 17 18 19 20 21 22 23 24 24 25 26 27 28 29 30 31 32
11 13 14 13 14 13 12 11 11 12 12 12 13 14 15 16 16 16 16 16 16 16 17 17 17 18 19 20 21 22 24 26 27 29 30 31 32 33 34 35 35 36 37
15 15 16 15 15 16 14 14 13 13 15 15 15 16 16 17 18 18 20 20 20 20 21 22 22 23 24 25 26 27 29 31 33 35 36 38 39 40 41 42 43 43 44
21 21 20 19 18 18 18 17 16 15 17 18 19 19 19 20 21 22 23 24 25 25 26 27 27 28 29 30 31 32 34 36 38 40 41 43 44 45 47 48 49 50 50
25 25 23 25 24 23 23 21 21 20 20 21 22 23 24 24 25 26 27 28 29 29 30 32 33 33 34 34 35 37 38 39 42 44 45 47 48 50 51 53 54 55 56
29 28 28 30 30 32 31 28 27 26 25 26 27 28 29 29 30 31 32 31 32 32 33 35 37 38 38 38 39 40 42 43 45 47 48 50 52 53 55 56 57 58 58
33 32 33 34 36 36 37 36 34 32 31 30 31 32 33 33 34 35 36 36 35 34 34 35 37 39 40 41 42 43 45 47 49 50 51 52 54 55 57 58 59 59 59
36 36 36 36 38 40 40 40 38 35 35 34 34 35 36 36 36 38 38 39 37 35 35 35 36 38 41 42 43 44 46 48 50 51 53 54 56 57 58 59 60 60 61
39 39 38 39 41 43 44 43 41 38 36 35 35 37 38 39 39 40 40 39 37 36 35 35 36 37 40 42 43 44 46 48 51 53 55 57 59 60 61 61 62 62 62
40 40 40 42 44 46 47 45 41 38 36 36 37 37 38 39 40 41 40 39 39 39 38 38 38 39 41 43 45 47 48 50 52 55 58 60 61 62 62 62 62 62 62
39 41 42 44 47 48 48 45 40 36 34 35 37 37 38 40 41 40 40 41 41 41 42 41 41 42 44 46 49 51 53 54 55 56 58 60 61 61 61 61 61 62 63
39 41 44 46 48 49 48 43 39 36 34 35 37 39 41 41 42 43 43 44 45 45 45 45 45 46 47 50 52 55 57 59 60 60 59 59 60 60 61 62 64 65 67
39 42 45 47 48 48 47 43 42 40 38 39 41 42 44 45 45 45 46 47 47 48 48 48 48 50 51 54 56 59 61 62 63 63 62 61 61 62 64 66 68 70 70
Wind_Direction
293 292 290 286 282 277 274 273 273 272 270 271 270 269 269 269 270 270 271 272 272 272 271 270 269 267 265 264 263 263 262 262 262 262 262 262 262 263 265 266 267 268 268
299 298 293 287 282 279 277 275 273 271 269 268 267 267 267 268 270 270 272 273 273 272 271 269 268 267 267 266 266 266 266 266 267 267 267 267 267 267 269 271 273 273 273
298 299 292 287 283 280 279 276 273 271 270 267 265 264 266 267 269 270 271 271 272 271 270 269 268 268 267 267 268 268 269 270 272 272 272 272 273 273 274 275 278 277 275
294 293 291 291 287 284 282 278 275 274 272 269 266 265 265 266 267 269 270 270 271 272 272 272 271 271 270 270 270 271 272 273 275 275 276 276 276 276 276 277 280 280 275
301 294 291 293 291 288 286 286 286 286 281 276 273 272 271 270 270 271 271 271 272 272 273 274 274 274 274 274 275 275 274 274 274 275 277 277 277 277 277 278 279 279 277
316 302 296 299 297 293 290 290 291 291 291 288 285 285 283 281 279 277 275 275 275 274 274 275 275 275 275 275 275 275 273 272 272 273 274 276 277 278 279 279 280 281 280
347 319 302 298 292 286 284 288 291 294 296 297 295 293 290 287 285 283 280 279 277 275 274 275 276 276 276 276 275 274 273 272 271 272 273 274 275 277 280 280 281 281 279
342 321 305 298 295 292 291 295 301 303 303 302 299 295 291 288 286 284 281 278 275 275 274 275 276 277 277 276 275 275 276 277 276 275 274 275 277 279 280 280 279 278 277
334 318 308 303 299 299 303 307 310 311 307 304 301 297 292 288 286 284 281 279 277 276 275 275 275 276 277 276 275 276 278 281 281 280 279 280 280 280 279 279 278 277 275
326 315 306 303 302 303 306 313 318 318 314 310 308 305 300 296 291 287 284 282 280 279 277 276 276 276 276 276 276 277 280 282 284 284 283 282 282 281 281 280 279 278 276
338 326 314 307 306 305 307 313 319 321 321 320 318 315 311 307 303 298 293 290 287 284 281 280 278 277 276 276 277 279 280 282 283 283 282 282 282 283 283 282 281 280 280
353 346 332 324 322 319 316 318 322 324 325 324 325 324 321 319 316 311 306 301 296 289 285 281 278 276 276 276 277 278 279 280 281 280 280 280 280 281 281 282 283 282 282
352 351 349 340 339 336 329 327 325 325 327 327 328 329 327 325 324 321 317 310 300 292 286 281 277 276 275 275 275 276 278 281 283 283 282 281 280 279 280 281 282 282 282
346 346 345 341 340 340 335 331 327 323 325 327 327 327 326 326 324 321 316 308 300 295 290 283 276 273 273 275 276 277 279 280 281 281 281 280 280 280 280 281 282 282 281
324 329 330 331 333 333 331 328 327 324 324 325 324 324 324 323 321 316 309 304 300 297 292 285 279 275 273 273 273 274 275 277 278 280 281 281 281 280 280 279 279 279 279
310 319 321 318 320 323 320 320 322 322 319 317 318 320 319 318 317 315 310 305 299 292 286 283 279 276 275 274 274 276 278 280 281 282 282 282 283 283 282 282 281 280 280
306 313 314 310 310 313 315 313 312 311 309 307 308 310 310 311 311 308 305 305 299 292 286 283 282 280 279 278 279 280 282 283 283 283 284 284 284 284 284 283 282 281 281
303 311 310 312 306 308 310 309 306 302 299 299 301 302 305 306 307 306 305 304 304 299 292 286 285 284 283 283 283 284 284 285 285 284 284 284 284 284 284 284 283 282 282
302 310 312 313 309 309 309 306 303 299 296 294 296 298 300 301 302 303 303 302 303 301 295 290 284 283 283 284 285 285 286 287 286 286 287 287 287 286 285 285 284 284 283
302 307 310 310 308 306 305 302 301 297 294 291 291 292 294 295 297 298 299 299 299 297 294 291 285 282 282 283 285 287 288 288 289 289 290 289 289 288 287 286 285 284 284
300 304 307 308 306 304 301 299 297 293 290 288 286 287 289 290 292 293 294 294 294 296 295 293 287 283 282 283 285 287 289 290 291 292 291 290 289 288 287 286 285 285 284
298 301 303 304 303 301 299 297 291 289 287 283 283 285 285 285 288 290 291 293 293 295 292 291 289 286 285 286 288 289 290 291 292 292 291 290 289 288 287 285 285 284 284
295 297 298 298 297 296 293 290 285 284 285 283 284 284 287 289 290 292 296 297 296 294 292 290 289 288 289 289 289 290 291 291 291 291 291 290 289 288 288 286 285 284 284
290 291 292 293 293 292 288 289 285 285 287 289 290 289 290 291 293 297 299 298 295 293 292 291 290 290 290 290 291 291 292 293 292 291 291 291 291 291 289 288 287 286 285
285 286 287 288 289 289 289 290 291 293 295 294 294 293 293 296 298 297 296 295 294 293 292 292 291 291 291 291 292 293 294 294 293 292 291 292 292 292 291 289 288 287 286
280 279 281 283 286 287 290 293 298 299 298 296 294 294 295 296 295 294 294 293 292 293 292 292 290 291 292 292 292 293 294 294 294 294 293 292 292 292 291 290 288 287 286
Height
5900 5900 5900 5901 5901 5901 5901 5901 5901 5901 5900 5900 5900 5901 5901 5901 5901 5902 5901 5901 5901 5900 5900 5899 5899 5899 5898 5898 5898 5898 5898 5899 5899 5899 5899 5899 5899 5898 5898 5898 5898 5898 5897
5899 5898 5898 5899 5899 5899 5899 5899 5899 5899 5898 5898 5898 5898 5898 5898 5899 5899 5899 5899 5898 5898 5898 5897 5897 5897 5896 5896 5896 5896 5896 5896 5896 5897 5896 5896 5896 5895 5895 5895 5895 5895 5894
5897 5897 5897 5897 5897 5897 5897 5897 5897 5897 5897 5897 5896 5896 5896 5897 5897 5897 5897 5896 5896 5895 5895 5895 5894 5894 5893 5893 5893 5893 5893 5894 5894 5894 5893 5892 5892 5892 5892 5892 5891 5891 5891
5896 5896 5896 5896 5896 5896 5896 5896 5896 5896 5896 5895 5895 5895 5895 5895 5895 5895 5894 5894 5893 5893 5892 5892 5891 5890 5890 5890 5889 5889 5890 5890 5891 5890 5889 5889 5889 5889 5889 5888 5888 5888 5887
5895 5895 5895 5896 5896 5896 5896 5896 5895 5895 5895 5894 5894 5894 5894 5893 5893 5892 5892 5892 5891 5891 5890 5889 5888 5887 5887 5886 5885 5885 5886 5887 5887 5887 5886 5885 5885 5885 5885 5885 5885 5884 5883
5895 5895 5895 5895 5895 5895 5895 5894 5894 5894 5893 5893 5893 5892 5892 5891 5891 5891 5890 5890 5889 5888 5888 5887 5886 5885 5884 5883 5882 5882 5882 5884 5884 5883 5882 5882 5881 5881 5882 5881 5881 5881 5880
5895 5895 5895 5894 5894 5893 5893 5893 5892 5892 5892 5891 5891 5891 5890 5890 5889 5889 5888 5888 5887 5886 5885 5885 5884 5883 5882 5881 5879 5878 5879 5880 5881 5880 5879 5878 5878 5878 5878 5878 5877 5877 5876
5895 5894 5894 5894 5893 5892 5892 5891 5891 5891 5890 5890 5890 5889 5889 5888 5888 5887 5887 5886 5885 5884 5883 5882 5881 5880 5879 5878 5877 5875 5876 5877 5878 5877 5876 5875 5875 5875 5874 5874 5873 5873 5872
5894 5894 5893 5893 5892 5892 5891 5890 5890 5889 5889 5888 5888 5887 5887 5886 5885 5884 5884 5883 5882 5881 5880 5879 5879 5878 5877 5875 5874 5873 5873 5874 5874 5874 5873 5872 5871 5871 5870 5869 5868 5868 5867
5894 5893 5892 5892 5891 5890 5890 5889 5888 5888 5887 5886 5886 5885 5884 5883 5882 5881 5880 5879 5879 5878 5877 5876 5875 5874 5873 5872 5871 5870 5870 5871 5871 5870 5869 5868 5867 5866 5865 5864 5863 5863 5862
5893 5892 5891 5890 5890 5889 5888 5887 5886 5886 5885 5884 5883 5882 5881 5880 5879 5878 5877 5876 5875 5874 5873 5872 5871 5870 5869 5868 5867 5866 5866 5867 5867 5867 5865 5864 5863 5861 5860 5859 5858 5857 5857
5892 5891 5890 5889 5888 5887 5886 5885 5884 5883 5883 5882 5880 5879 5878 5877 5876 5875 5873 5872 5871 5870 5869 5869 5868 5867 5866 5865 5864 5863 5862 5862 5862 5862 5861 5860 5858 5857 5855 5854 5853 5852 5851
5891 5890 5889 5887 5887 5886 5885 5883 5883 5882 5881 5879 5878 5877 5876 5874 5873 5872 5871 5870 5868 5867 5866 5866 5865 5863 5862 5861 5860 5859 5857 5857 5857 5856 5855 5854 5853 5851 5850 5848 5847 5846 5845
5891 5889 5888 5885 5885 5884 5883 5882 5881 5880 5879 5878 5876 5875 5874 5872 5871 5870 5869 5868 5866 5865 5864 5863 5862 5860 5859 5858 5856 5855 5853 5852 5851 5850 5849 5847 5846 5845 5843 5842 5841 5839 5838
5891 5889 5887 5885 5883 5882 5881 5880 5879 5877 5876 5875 5874 5873 5872 5871 5869 5868 5867 5866 5864 5863 5861 5860 5859 5857 5856 5854 5853 5851 5849 5847 5845 5843 5841 5840 5839 5837 5836 5834 5833 5832 5830
5888 5886 5884 5883 5881 5880 5879 5878 5876 5875 5873 5872 5871 5870 5869 5868 5867 5865 5863 5863 5861 5860 5858 5857 5855 5854 5852 5851 5849 5847 5844 5841 5839 5837 5835 5833 5831 5829 5828 5826 5824 5823 5821
5884 5883 5881 5879 5878 5876 5876 5875 5873 5872 5870 5869 5867 5866 5865 5863 5862 5860 5858 5857 5856 5855 5853 5852 5850 5848 5847 5845 5843 5841 5838 5836 5833 5829 5827 5825 5823 5821 5819 5816 5814 5812 5810
5879 5878 5877 5875 5873 5871 5871 5870 5869 5868 5867 5864 5862 5860 5858 5857 5855 5853 5851 5850 5848 5846 5845 5844 5842 5841 5839 5837 5835 5833 5831 5828 5825 5822 5819 5816 5813 5811 5808 5805 5802 5800 5798
5872 5872 5871 5870 5868 5865 5864 5863 5863 5862 5861 5858 5855 5853 5851 5850 5848 5846 5844 5843 5841 5839 5837 5836 5834 5832 5830 5828 5826 5824 5821 5818 5815 5812 5809 5805 5802 5799 5795 5792 5789 5786 5784
5866 5866 5866 5864 5861 5858 5856 5855 5854 5854 5852 5850 5848 5845 5843 5842 5840 5838 5837 5835 5833 5831 5829 5827 5824 5822 5820 5819 5817 5815 5812 5808 5804 5800 5797 5793 5789 5786 5782 5778 5775 5772 5769
5860 5860 5859 5858 5855 5852 5849 5848 5845 5844 5843 5842 5840 5837 5835 5833 5831 5830 5828 5826 5825 5822 5820 5818 5815 5813 5811 5809 5807 5805 5802 5797 5793 5789 5784 5780 5776 5772 5768 5764 5760 5757 5754
5853 5853 5852 5852 5849 5845 5843 5840 5836 5834 5833 5832 5831 5829 5826 5824 5822 5821 5819 5817 5815 5813 5811 5808 5806 5803 5800 5798 5797 5794 5791 5788 5782 5777 5772 5767 5763 5758 5754 5749 5745 5742 5738
5847 5846 5846 5845 5842 5838 5834 5831 5826 5825 5825 5824 5822 5820 5817 5815 5814 5813 5810 5808 5806 5804 5801 5798 5796 5793 5790 5787 5785 5782 5779 5776 5772 5766 5759 5754 5749 5744 5739 5734 5729 5725 5721
5841 5840 5839 5837 5834 5830 5824 5821 5817 5816 5817 5816 5814 5812 5810 5807 5805 5803 5801 5799 5796 5794 5791 5788 5785 5783 5780 5776 5772 5769 5765 5762 5757 5753 5747 5739 5733 5728 5723 5718 5713 5708 5704
5835 5833 5832 5830 5827 5822 5816 5812 5810 5809 5809 5808 5807 5805 5802 5800 5798 5795 5792 5789 5786 5783 5780 5777 5774 5772 5768 5764 5759 5755 5750 5745 5741 5737 5733 5726 5719 5712 5706 5701 5696 5690 5685
5829 5827 5825 5822 5819 5814 5808 5804 5803 5803 5802 5802 5801 5799 5796 5793 5790 5787 5783 5780 5776 5773 5770 5766 5763 5759 5755 5751 5746 5740 5735 5729 5724 5719 5715 5711 5705 5698 5690 5684 5677 5671 5665